Location: Lafig�re
(44.4503°N, 4.0357°E)
Time: 00:43:04
(UTC+00:00)

ARGOS - Pass Details

Date: 02 February 2021
Orbit: 821 x 834 km, 98.4° (Epoch: 03 March)

Event Time Altitude Azimuth Distance (km) Brightness Sun altitude
Rises 18:27:48 0° 157° (SSE) 3,344 6.2 -16.8°
Reaches altitude 10° 18:30:08 10° 155° (SSE) 2,417 5.4 -17.3°
Maximum altitude 18:35:27 69° 73° (ENE) 884 3.0 -18.2°
Drops below altitude 10° 18:40:49 10° 351° (N) 2,443 5.6 -19.2°
Sets 18:43:12 0° 349° (N) 3,383 6.4 -19.6°
